Torna al catalogo

STARLINK-35990

AttivoComunicazioniVLEO
NORAD 66792·PAYLOAD·🇺🇸 United States

Lanciato Dec 1, 2025 da Cape Canaveral Space Force Station

Loading…

Prossimi Passaggi (prossime 24 ore)

TLE

AggiornatoSource: CelesTrak SupGP

Epoca: Sep 14, 2026, 22:46 UTC

1 66792C 25278B   26257.94909722 -.00009416  00000+0 -34111-3 0  2579
2 66792  42.9991 125.3020 0001423 271.6533 193.1307 15.27575433    13

Traccia STARLINK-35990 in tempo reale con AllMySat

Download on the App Store